Weather History for Anoka County, MN

Change the Weather History Date:

Wednesday, February 13, 2013

  Actual Average Record
Temperature  
Mean Temperature 31 °F -  
Max Temperature 39 °F 27 °F 46 °F (2011)
Min Temperature 23 °F 11 °F 1 °F (2007)
Degree Days  
Heating Degree Days 34    
Moisture  
Dew Point 25 °F    
Average Humidity 88    
Maximum Humidity 100    
Minimum Humidity 65    
Precipitation  
Precipitation 0.00 in - - ()
Sea Level Pressure  
Sea Level Pressure 29.68 in    
Wind  
Wind Speed 5 mph (SW)    
Max Wind Speed 8 mph    
Max Gust Speed -    
Visibility 7 miles    
Events Snow    
Averages and records for this station are not official NWS values.
T = Trace of Precipitation, MM = Missing Value Source: NWS Daily Summary

Daily Weather History Graph

Daily Weather History Graph

Search for Another Location

Airport:

Trip Planner

Search our weather history database for the weather conditions in past years. The results will help you decide how hot, cold, wet, or windy it might be!

Date:

Astronomy

Feb. 13, 2013 Rise Set
Actual Time 7:16 AM CST 5:38 PM CST
Civil Twilight 6:46 AM CST 6:08 PM CST
Nautical Twilight 6:11 AM CST 6:43 PM CST
Astronomical Twilight 5:37 AM CST 7:17 PM CST
Moon 8:33 AM CST (2/13) 9:55 PM CST (2/13)
Length of Visible Light 11h 22m
Length of Day
10h 21m
Waxing Crescent, 14% of the Moon is Illuminated
Feb 13
Waxing Crescent
Feb 17
First Quarter
Feb 25
Full
Mar 4
Last Quarter
Mar 11
New

Hourly Weather History & Observations

Time (CST) Temp. Windchill Dew Point Humidity Pressure Visibility Wind Dir Wind Speed Gust Speed Precip Events Conditions
12:14 AM 24.8 °F 17.9 °F 19.4 °F 80% 29.78 in 10.0 mi WSW 5.8 mph - N/A   Mostly Cloudy
12:34 AM 24.8 °F 17.9 °F 19.4 °F 80% 29.78 in 10.0 mi WSW 5.8 mph - N/A   Overcast
12:54 AM 24.8 °F 19.1 °F 19.4 °F 80% 29.77 in 10.0 mi WSW 4.6 mph - N/A   Overcast
1:14 AM 24.8 °F 19.1 °F 19.4 °F 80% 29.77 in 10.0 mi WSW 4.6 mph - N/A   Overcast
1:33 AM 24.8 °F 19.1 °F 19.4 °F 80% 29.77 in 10.0 mi SW 4.6 mph - N/A   Scattered Clouds
1:54 AM 23.0 °F 17.0 °F 19.4 °F 86% 29.76 in 10.0 mi SW 4.6 mph - N/A   Scattered Clouds
2:14 AM 24.8 °F 19.1 °F 19.4 °F 80% 29.76 in 10.0 mi SW 4.6 mph - N/A   Mostly Cloudy
2:33 AM 24.8 °F 19.1 °F 21.2 °F 86% 29.76 in 10.0 mi SW 4.6 mph - N/A   Overcast
2:54 AM 24.8 °F 17.9 °F 21.2 °F 86% 29.75 in 10.0 mi SW 5.8 mph - N/A   Overcast
3:14 AM 24.8 °F 19.1 °F 21.2 °F 86% 29.75 in 10.0 mi SW 4.6 mph - N/A   Overcast
3:33 AM 24.8 °F 19.1 °F 21.2 °F 86% 29.74 in 10.0 mi SW 4.6 mph - N/A   Overcast
3:54 AM 24.8 °F 17.9 °F 21.2 °F 86% 29.74 in 10.0 mi WSW 5.8 mph - N/A   Overcast
4:14 AM 24.8 °F 19.1 °F 21.2 °F 86% 29.74 in 10.0 mi SW 4.6 mph - N/A   Mostly Cloudy
4:33 AM 24.8 °F 19.1 °F 21.2 °F 86% 29.73 in 10.0 mi SSW 4.6 mph - N/A   Clear
4:54 AM 24.8 °F 20.5 °F 21.2 °F 86% 29.74 in 10.0 mi SSW 3.5 mph - N/A   Clear
5:14 AM 24.8 °F 20.5 °F 21.2 °F 86% 29.73 in 10.0 mi SW 3.5 mph - N/A   Mostly Cloudy
5:33 AM 24.8 °F 19.1 °F 21.2 °F 86% 29.74 in 10.0 mi SW 4.6 mph - N/A   Overcast
5:54 AM 24.8 °F 19.1 °F 21.2 °F 86% 29.73 in 10.0 mi SSW 4.6 mph - N/A   Overcast
6:14 AM 24.8 °F 20.5 °F 21.2 °F 86% 29.72 in 10.0 mi SSW 3.5 mph - N/A   Overcast
6:34 AM 24.8 °F 20.5 °F 21.2 °F 86% 29.71 in 10.0 mi South 3.5 mph - N/A   Overcast
6:45 AM 24.8 °F 17.9 °F 21.2 °F 86% 29.71 in 10.0 mi WSW 5.8 mph - N/A   Overcast
6:54 AM 24.8 °F 20.5 °F 21.2 °F 86% 29.71 in 10.0 mi SSW 3.5 mph - N/A   Overcast
7:45 AM 24.8 °F 20.5 °F 21.2 °F 86% 29.71 in 10.0 mi SW 3.5 mph - N/A   Overcast
8:45 AM 24.8 °F 16.1 °F 21.2 °F 86% 29.70 in 10.0 mi South 8.1 mph - N/A   Mostly Cloudy
9:45 AM 24.8 °F 16.1 °F 21.2 °F 86% 29.69 in 10.0 mi SSW 8.1 mph - N/A   Mostly Cloudy
10:50 AM 28.4 °F 20.4 °F 21.2 °F 74% 29.69 in 10.0 mi SSW 8.1 mph - N/A   Mostly Cloudy
11:50 AM 33.8 °F 27.0 °F 24.8 °F 70% 29.68 in 10.0 mi SSW 8.1 mph - N/A   Mostly Cloudy
2:50 PM 39.2 °F 34.2 °F 28.4 °F 65% 29.61 in 10.0 mi South 6.9 mph - N/A   Overcast
5:25 PM 35.6 °F 30.7 °F 32.0 °F 87% 29.61 in 2.5 mi SW 5.8 mph - N/A Snow Light Snow
5:45 PM 35.6 °F 32.8 °F 33.8 °F 93% 29.61 in 2.5 mi SW 3.5 mph - N/A Snow Light Snow
6:45 PM 33.8 °F - 33.8 °F 100% 29.60 in 2.0 mi Calm Calm - N/A Snow Light Snow
7:45 PM 33.8 °F 30.8 °F 33.8 °F 100% 29.58 in 1.5 mi East 3.5 mph - N/A Snow Light Snow
8:45 PM 33.8 °F 30.8 °F 33.8 °F 100% 29.58 in 1.0 mi East 3.5 mph - N/A Snow Light Snow
9:13 PM 33.8 °F 30.8 °F 33.8 °F 100% 29.56 in 1.0 mi East 3.5 mph - N/A Snow Light Snow
9:34 PM 33.8 °F 30.8 °F 33.8 °F 100% 29.55 in 1.0 mi ENE 3.5 mph - N/A Snow Light Snow
9:54 PM 33.8 °F - 33.8 °F 100% 29.55 in 1.2 mi Calm Calm - N/A   Overcast
10:13 PM 33.8 °F 29.6 °F 33.8 °F 100% 29.55 in 1.0 mi NNE 4.6 mph - N/A   Overcast
10:34 PM 33.8 °F 29.6 °F 33.8 °F 100% 29.56 in 1.0 mi NNE 4.6 mph - N/A   Overcast
10:54 PM 33.8 °F 28.6 °F 33.8 °F 100% 29.56 in 1.2 mi NNE 5.8 mph - N/A   Overcast
11:13 PM 33.8 °F 27.0 °F 33.8 °F 100% 29.56 in 1.2 mi North 8.1 mph - N/A   Overcast
11:34 PM 33.8 °F 28.6 °F 33.8 °F 100% 29.57 in 1.2 mi North 5.8 mph - N/A   Overcast
11:53 PM 33.8 °F 27.0 °F 33.8 °F 100% 29.57 in 1.5 mi North 8.1 mph - N/A   Overcast